User: anonymous   Login
Location: Theydon Bois
(51.6750°N, 0.1050°E)
Time: 21:33:25
(UTC+01:00)
Language:

Cosmos 2341 Rocket - Orbit

View from above orbital plane
View from above orbital plane
View from above satellite
View from above satellite

Ground track
Ground track

The orbit data is extracted from the following two-line orbital elements,

1 24773U 97017B   18196.84550628 +.00000063 +00000-0 +51476-4 0  9996
2 24773 082.9215 081.8402 0023104 289.3730 117.1421 13.73607988064668
Epoch (UTC): 15 July 2018 20:17:31
Eccentricity: 0.0023104
inclination: 82.9215°
perigee height: 969 km
apogee height: 1003 km
right ascension of ascending node: 81.8402°
argument of perigee: 289.3730°
revolutions per day: 13.73607988
mean anomaly at epoch: 117.1421°
orbit number at epoch: 6466

The dashed part of the orbit path shows where the satellite is in the earth's shadow,  

DLR